FW7093 Weather Reports


time (UTC)temp
C
wind
direction
speed
KPH
gust
KPH
rain 1hr
cm
rain 24hr
cm
rain mn
cm
humidity
%
barometer
mb
20260507010545 18 174 0.0 6.4 0.00 0.13 0.13 84 1008.3
20260507010109 18 0 1.6 6.4 0.00 0.13 0.13 83 1008.3
20260507005545 18 198 1.6 6.4 0.00 0.13 0.13 83 1008.2
20260507005043 18 167 0.0 6.4 0.00 0.13 0.13 83 1008.3
20260507004549 18 162 0.0 6.4 0.00 0.13 0.13 83 1008.2
20260507004042 18 269 1.6 11.3 0.00 0.13 0.13 84 1008.3
20260507003547 18 0 1.6 11.3 0.00 0.13 0.13 83 1008.3
20260507003050 18 170 0.0 8.0 0.00 0.13 0.13 83 1008.3
20260507002548 17 182 1.6 6.4 0.00 0.13 0.13 85 1008.3
20260507002043 18 0 0.0 4.8 0.00 0.13 0.13 84 1008.5
20260507001558 18 0 0.0 6.4 0.00 0.13 0.13 83 1008.3
20260507001044 18 210 0.0 6.4 0.00 0.13 0.13 83 1008.1
20260507000543 18 0 0.0 4.8 0.00 0.13 0.13 82 1007.9
20260507000059 18 139 0.0 4.8 0.00 0.13 0.13 82 1007.9
20260506235542 18 0 0.0 6.4 0.00 0.13 0.13 81 1007.9
20260506235043 18 136 0.0 8.0 0.00 0.13 0.13 81 1007.6
20260506234616 18 178 0.0 8.0 0.00 0.13 0.13 81 1007.7
20260506234045 19 201 0.0 6.4 0.00 0.13 0.13 80 1007.6
20260506233544 19 179 0.0 14.5 0.00 0.13 0.13 80 1007.6
20260506233104 19 0 0.0 14.5 0.00 0.13 0.13 79 1007.6
20260506232543 20 138 0.0 8.0 0.00 0.13 0.13 78 1007.5
20260506232044 20 0 0.0 9.7 0.00 0.13 0.13 79 1007.6
20260506231551 20 0 1.6 14.5 0.00 0.13 0.13 79 1007.7
20260506231043 20 197 1.6 14.5 0.00 0.13 0.13 78 1007.9
20260506230542 20 201 1.6 12.9 0.00 0.13 0.13 78 1007.5
20260506230051 20 129 1.6 12.9 0.00 0.13 0.13 78 1007.7
20260506225546 20 257 3.2 12.9 0.00 0.13 0.13 77 1007.7
20260506225049 20 0 1.6 11.3 0.00 0.13 0.13 77 1007.8
20260506224553 20 201 1.6 14.5 0.00 0.13 0.13 76 1007.7
20260506224043 20 159 1.6 14.5 0.00 0.13 0.13 75 1007.7
20260506223544 20 184 3.2 12.9 0.00 0.13 0.13 75 1007.5
20260506223100 20 145 3.2 14.5 0.00 0.13 0.13 75 1007.7
20260506222545 21 196 3.2 14.5 0.00 0.13 0.13 75 1007.7
20260506222043 20 161 3.2 17.7 0.00 0.13 0.13 76 1007.8
20260506221550 21 157 3.2 17.7 0.00 0.13 0.13 75 1007.7
20260506221042 21 0 4.8 17.7 0.00 0.13 0.13 74 1007.7
20260506220544 21 155 3.2 17.7 0.00 0.13 0.13 74 1007.6
20260506220052 21 166 6.4 16.1 0.00 0.13 0.13 73 1007.6
20260506215544 21 254 3.2 16.1 0.00 0.13 0.13 74 1007.6
20260506215047 21 0 4.8 16.1 0.00 0.13 0.13 74 1007.6
20260506214551 21 150 1.6 16.1 0.00 0.13 0.13 74 1007.6
20260506214044 21 203 6.4 22.5 0.00 0.13 0.13 73 1007.4
20260506213543 21 32 3.2 22.5 0.00 0.13 0.13 74 1007.4
20260506213056 21 182 6.4 22.5 0.00 0.13 0.13 73 1007.5
20260506212546 21 132 3.2 22.5 0.00 0.13 0.13 73 1007.4
20260506212048 21 99 4.8 22.5 0.00 0.13 0.13 74 1007.4
20260506211555 21 184 4.8 17.7 0.00 0.13 0.13 75 1007.4
20260506211044 21 202 4.8 22.5 0.00 0.13 0.13 74 1007.4
20260506210543 21 0 6.4 22.5 0.00 0.13 0.13 76 1007.5
20260506210052 21 193 1.6 22.5 0.00 0.13 0.13 73 1007.3
20260506205542 21 232 4.8 22.5 0.00 0.13 0.13 74 1007.3
20260506205042 21 181 8.0 20.9 0.00 0.13 0.13 74 1007.2
20260506204604 21 138 6.4 20.9 0.00 0.13 0.13 75 1007.1
20260506204042 20 227 3.2 20.9 0.00 0.13 0.13 75 1007.1
20260506203542 21 140 6.4 19.3 0.00 0.13 0.13 76 1007.2
20260506203054 21 273 4.8 19.3 0.00 0.13 0.13 74 1007.1
20260506202545 21 215 6.4 22.5 0.00 0.13 0.13 74 1007.0
20260506202043 21 230 4.8 22.5 0.00 0.13 0.13 75 1007.1
20260506201554 21 255 6.4 19.3 0.00 0.13 0.13 75 1007.1
20260506201044 21 347 6.4 19.3 0.00 0.13 0.13 74 1007.1
20260506200545 21 257 6.4 29.0 0.00 0.13 0.13 73 1007.0
20260506200049 21 0 6.4 29.0 0.00 0.13 0.13 77 1007.0
20260506195543 21 246 6.4 17.7 0.00 0.13 0.13 75 1007.0
20260506195044 20 201 4.8 20.9 0.00 0.13 0.13 76 1007.1
20260506194552 20 138 3.2 22.5 0.00 0.13 0.13 77 1007.3
20260506194042 20 226 6.4 22.5 0.00 0.13 0.13 77 1007.4
20260506193542 20 170 4.8 22.5 0.00 0.13 0.13 78 1007.7
20260506193053 20 273 9.7 24.1 0.00 0.13 0.13 79 1007.5
20260506192544 20 0 8.0 24.1 0.00 0.13 0.13 77 1007.7
20260506192047 20 241 6.4 29.0 0.00 0.13 0.13 78 1007.8
20260506191553 19 0 1.6 29.0 0.00 0.13 0.13 78 1007.8
20260506191044 18 255 4.8 27.4 0.00 0.13 0.13 79 1007.9
20260506190547 18 0 4.8 27.4 0.00 0.13 0.13 79 1007.9
20260506190051 18 328 6.4 20.9 0.00 0.13 0.13 79 1008.1
20260506185543 18 194 4.8 19.3 0.00 0.13 0.13 78 1007.8
20260506185043 19 347 3.2 24.1 0.00 0.13 0.13 78 1008.0
20260506184552 18 220 6.4 24.1 0.00 0.13 0.13 80 1008.0
20260506184045 18 355 1.6 24.1 0.00 0.13 0.13 80 1008.1
20260506183542 18 184 9.7 22.5 0.00 0.13 0.13 79 1008.0
20260506183050 18 157 3.2 30.6 0.00 0.13 0.13 79 1008.1
20260506182544 18 0 8.0 30.6 0.00 0.13 0.13 79 1008.3
20260506182044 18 163 8.0 25.7 0.00 0.13 0.13 79 1008.3
20260506181551 18 320 3.2 22.5 0.00 0.13 0.13 80 1008.1
20260506181043 18 0 8.0 19.3 0.00 0.13 0.13 80 1008.1
20260506180545 18 251 1.6 27.4 0.00 0.13 0.13 80 1008.2
20260506180051 18 195 9.7 27.4 0.00 0.13 0.13 80 1008.2
20260506175544 18 235 6.4 19.3 0.00 0.13 0.13 80 1008.4
20260506175044 18 179 3.2 32.2 0.00 0.13 0.13 81 1008.3
20260506174558 18 186 4.8 32.2 0.00 0.13 0.13 81 1008.6
20260506174045 18 262 6.4 19.3 0.00 0.13 0.13 81 1008.2
20260506173545 18 209 8.0 19.3 0.00 0.13 0.13 81 1008.3
20260506173118 18 0 3.2 22.5 0.00 0.13 0.13 82 1008.3
20260506172543 18 193 4.8 22.5 0.00 0.13 0.13 82 1008.3
20260506172043 18 192 8.0 19.3 0.00 0.13 0.13 82 1008.5
20260506171551 18 173 8.0 20.9 0.00 0.13 0.13 83 1008.6
20260506171043 17 159 6.4 20.9 0.00 0.13 0.13 84 1008.5
20260506170546 17 194 4.8 19.3 0.00 0.13 0.13 84 1008.4
20260506170050 17 190 8.0 20.9 0.00 0.13 0.13 84 1008.5
20260506165544 17 189 4.8 25.7 0.03 0.13 0.13 84 1008.6
20260506165043 17 68 8.0 25.7 0.05 0.13 0.13 85 1008.5
20260506164551 17 172 11.3 25.7 0.05 0.13 0.13 84 1008.7
20260506164042 17 172 4.8 27.4 0.08 0.13 0.13 85 1008.7
20260506163546 17 0 8.0 27.4 0.08 0.13 0.13 84 1008.8
20260506163054 17 241 9.7 20.9 0.08 0.13 0.13 85 1008.7
20260506162545 17 168 4.8 17.7 0.08 0.13 0.13 86 1009.0
20260506162043 17 199 4.8 17.7 0.10 0.13 0.13 87 1009.2
20260506161600 17 224 8.0 20.9 0.10 0.13 0.13 86 1009.0
20260506161046 17 173 11.3 22.5 0.10 0.13 0.13 85 1008.9
20260506160543 17 147 8.0 22.5 0.10 0.13 0.13 87 1009.0
20260506160052 17 124 3.2 24.1 0.13 0.13 0.13 86 1009.0
20260506155543 17 183 9.7 24.1 0.10 0.10 0.10 85 1009.4
20260506155044 17 184 8.0 27.4 0.08 0.08 0.08 84 1009.5
20260506154559 17 173 11.3 27.4 0.08 0.08 0.08 83 1009.7
20260506154044 17 171 8.0 22.5 0.05 0.05 0.05 81 1009.9
20260506153542 17 180 8.0 20.9 0.05 0.05 0.05 82 1009.9
20260506153049 17 205 8.0 25.7 0.05 0.05 0.05 80 1009.9
20260506152546 17 0 3.2 25.7 0.05 0.05 0.05 80 1009.8
20260506152044 17 183 9.7 27.4 0.03 0.03 0.03 79 1009.9
20260506151555 17 201 6.4 27.4 0.03 0.03 0.03 79 1009.9
20260506151043 17 199 12.9 29.0 0.03 0.03 0.03 78 1009.8
20260506150545 17 188 9.7 30.6 0.03 0.03 0.03 76 1009.7
20260506150059 18 169 11.3 30.6 0.00 0.00 0.00 76 1009.6
20260506145546 18 186 9.7 29.0 0.00 0.00 0.00 73 1009.8
20260506145047 18 91 4.8 24.1 0.00 0.00 0.00 73 1009.8
20260506144608 18 172 3.2 19.3 0.00 0.00 0.00 71 1009.8
20260506144045 19 186 6.4 19.3 0.00 0.00 0.00 71 1009.8
20260506143545 19 197 3.2 19.3 0.00 0.00 0.00 70 1009.7
20260506143055 20 201 4.8 25.7 0.00 0.00 0.00 68 1010.0
20260506142544 20 210 6.4 25.7 0.00 0.00 0.00 69 1009.8
20260506142043 19 203 11.3 25.7 0.00 0.00 0.00 67 1009.8
20260506141550 19 234 4.8 29.0 0.00 0.00 0.00 69 1009.8
20260506141046 19 278 4.8 29.0 0.00 0.00 0.00 68 1009.8
20260506140543 19 198 12.9 29.0 0.00 0.00 0.00 67 1009.9
20260506140106 20 152 4.8 20.9 0.00 0.00 0.00 66 1009.8
20260506135543 20 205 4.8 24.1 0.00 0.00 0.00 66 1009.8
20260506135043 20 104 9.7 25.7 0.00 0.00 0.00 65 1009.9
20260506134553 20 145 8.0 29.0 0.00 0.00 0.00 63 1009.6
20260506134043 20 134 12.9 29.0 0.00 0.00 0.00 63 1009.5
20260506133545 20 174 8.0 27.4 0.00 0.00 0.00 64 1009.5
20260506133111 20 158 8.0 27.4 0.00 0.00 0.00 65 1009.5
20260506132545 20 159 6.4 22.5 0.00 0.00 0.00 63 1009.6
20260506132042 20 199 9.7 25.7 0.00 0.00 0.00 66 1009.6
20260506131550 20 94 9.7 25.7 0.00 0.00 0.00 65 1009.6
20260506131044 20 240 6.4 22.5 0.00 0.00 0.00 65 1009.6
20260506130543 20 209 6.4 25.7 0.00 0.00 0.00 66 1009.7
20260506130133 19 153 6.4 25.7 0.00 0.00 0.00 68 1009.6
20260506125544 19 208 4.8 25.7 0.00 0.00 0.00 68 1009.7
20260506125043 19 147 8.0 25.7 0.00 0.00 0.00 67 1009.7
20260506124553 19 176 6.4 20.9 0.00 0.00 0.00 68 1009.8
20260506124043 19 234 8.0 22.5 0.00 0.00 0.00 68 1009.8
20260506123544 19 0 1.6 24.1 0.00 0.00 0.00 69 1009.8
20260506123053 18 0 8.0 24.1 0.00 0.00 0.00 68 1009.8
20260506122544 18 208 8.0 25.7 0.00 0.00 0.00 69 1009.8
20260506122042 18 196 11.3 25.7 0.00 0.00 0.00 69 1009.9
20260506121556 18 205 11.3 24.1 0.00 0.00 0.00 70 1009.9
20260506121043 18 184 12.9 25.7 0.00 0.00 0.00 70 1009.8
20260506120545 18 201 6.4 32.2 0.00 0.00 0.00 71 1009.6
20260506120057 18 133 11.3 32.2 0.00 0.00 0.00 71 1009.7
20260506115544 18 203 11.3 27.4 0.00 0.00 0.00 71 1009.8
20260506115043 18 0 9.7 30.6 0.00 0.00 0.00 71 1009.6
20260506114551 18 152 14.5 30.6 0.00 0.00 0.00 71 1009.7
20260506114043 18 194 12.9 29.0 0.00 0.00 0.00 71 1009.6
20260506113543 18 168 9.7 29.0 0.00 0.00 0.00 72 1009.4
20260506113052 18 175 9.7 27.4 0.00 0.00 0.00 73 1009.5
20260506112543 18 164 8.0 24.1 0.00 0.00 0.00 73 1009.5
20260506112043 18 195 9.7 24.1 0.00 0.00 0.00 73 1009.5
20260506111548 18 158 8.0 29.0 0.00 0.00 0.00 73 1009.5
20260506111043 17 177 6.4 29.0 0.00 0.00 0.00 74 1009.3
20260506110543 17 197 9.7 29.0 0.00 0.00 0.00 74 1009.5
20260506110054 17 182 4.8 17.7 0.00 0.00 0.00 74 1009.6
20260506105543 17 154 8.0 29.0 0.00 0.00 0.00 74 1009.6
20260506105043 17 204 11.3 29.0 0.00 0.00 0.00 74 1009.3
20260506104559 17 147 8.0 25.7 0.00 0.00 0.00 74 1009.3
20260506104044 17 0 9.7 25.7 0.00 0.00 0.00 74 1009.5
20260506103542 17 217 8.0 27.4 0.00 0.00 0.00 74 1009.5
20260506103054 17 186 11.3 27.4 0.00 0.00 0.00 74 1009.5
20260506102544 17 182 6.4 27.4 0.00 0.00 0.00 75 1009.4
20260506102046 17 215 9.7 19.3 0.00 0.00 0.00 75 1009.6
20260506101550 17 126 8.0 29.0 0.00 0.00 0.00 75 1009.6
20260506101043 17 151 6.4 29.0 0.00 0.00 0.00 75 1009.5
20260506100544 17 114 9.7 29.0 0.00 0.00 0.00 75 1009.6
20260506100105 17 203 12.9 27.4 0.00 0.00 0.00 75 1009.4
20260506095543 17 216 4.8 24.1 0.00 0.00 0.00 76 1009.4
20260506095043 17 114 6.4 24.1 0.00 0.00 0.00 76 1009.3
20260506094602 17 159 3.2 25.7 0.00 0.00 0.00 76 1009.4
20260506094042 17 168 8.0 25.7 0.00 0.00 0.00 76 1009.4
20260506093619 17 213 8.0 22.5 0.00 0.00 0.00 76 1009.5
20260506093051 17 209 6.4 16.1 0.00 0.00 0.00 76 1009.6
20260506092544 17 211 3.2 19.3 0.00 0.00 0.00 76 1009.5
20260506092043 17 171 4.8 20.9 0.00 0.00 0.00 76 1009.5
20260506091548 17 154 6.4 20.9 0.00 0.00 0.00 76 1009.5
20260506091043 17 156 8.0 17.7 0.00 0.00 0.00 75 1009.6
20260506090542 17 152 3.2 19.3 0.00 0.00 0.00 75 1009.5
20260506090053 17 178 6.4 22.5 0.00 0.00 0.00 75 1009.4
20260506085543 17 141 4.8 22.5 0.00 0.00 0.00 75 1009.4
20260506085046 17 176 4.8 27.4 0.00 0.00 0.00 75 1009.5
20260506084600 17 174 3.2 27.4 0.00 0.00 0.00 75 1009.4
20260506084044 17 198 8.0 27.4 0.00 0.00 0.00 74 1009.5
20260506083543 17 123 8.0 24.1 0.00 0.00 0.00 74 1009.4
20260506083057 18 188 6.4 19.3 0.00 0.00 0.00 73 1009.4
20260506082543 18 193 8.0 19.3 0.00 0.00 0.00 73 1009.2
20260506082043 18 174 4.8 19.3 0.00 0.00 0.00 73 1009.4
20260506081605 18 178 3.2 16.1 0.00 0.00 0.00 73 1009.6
20260506081044 18 170 4.8 29.0 0.00 0.00 0.00 72 1009.6
20260506080543 18 266 9.7 29.0 0.00 0.00 0.00 72 1009.6
20260506073053 19 148 9.7 22.5 0.00 0.00 0.00 70 1009.6
20260506072546 18 170 9.7 29.0 0.00 0.00 0.00 70 1009.6
20260506072043 19 180 6.4 29.0 0.00 0.00 0.00 70 1009.6
20260506071552 19 182 8.0 22.5 0.00 0.00 0.00 70 1009.6
20260506071043 19 265 8.0 22.5 0.00 0.00 0.00 70 1009.7
20260506070543 19 198 9.7 22.5 0.00 0.00 0.00 70 1009.6
20260506062045 19 199 4.8 19.3 0.00 0.00 0.00 70 1009.8
20260506061555 19 153 6.4 20.9 0.00 0.00 0.00 70 1009.9
20260506061043 19 157 8.0 20.9 0.00 0.00 0.00 70 1009.9
20260506060543 19 226 8.0 20.9 0.00 0.00 0.00 70 1009.8
20260506051042 19 211 11.3 25.7 0.00 0.00 0.00 70 1010.2
20260506050542 19 240 8.0 22.5 0.00 0.00 0.00 70 1010.3
20260506045043 20 184 4.8 24.1 0.00 0.00 0.00 68 1010.3
20260506044555 20 205 6.4 25.7 0.00 0.00 0.00 68 1010.3
20260506044042 19 176 8.0 25.7 0.00 0.00 0.00 68 1010.4
20260506043543 20 215 11.3 25.7 0.00 0.00 0.00 68 1010.3
20260506043055 20 0 4.8 22.5 0.00 0.00 0.00 67 1010.4
20260506042543 20 159 8.0 17.7 0.00 0.00 0.00 67 1010.4
20260506042045 20 149 9.7 20.9 0.00 0.00 0.00 66 1010.4
20260506041552 20 156 8.0 25.7 0.00 0.00 0.00 65 1010.4
20260506041044 20 199 8.0 25.7 0.00 0.00 0.00 64 1010.3
20260506040543 20 188 11.3 24.1 0.00 0.00 0.00 64 1010.4
20260506040054 20 157 8.0 20.9 0.00 0.00 0.00 64 1010.3
20260506035544 20 195 6.4 20.9 0.00 0.00 0.00 63 1010.3
20260506035043 20 145 6.4 19.3 0.00 0.00 0.00 63 1010.2
20260506034610 20 143 6.4 19.3 0.00 0.00 0.00 62 1010.2
20260506034044 20 178 4.8 19.3 0.00 0.00 0.00 62 1010.2
20260506033542 20 175 6.4 19.3 0.00 0.00 0.00 61 1010.2
20260506033052 20 153 4.8 22.5 0.00 0.00 0.00 61 1010.2
20260506032544 20 180 8.0 22.5 0.00 0.00 0.00 61 1010.1
20260506032044 20 174 4.8 16.1 0.00 0.00 0.00 61 1010.2
20260506031556 20 137 6.4 16.1 0.00 0.00 0.00 61 1010.1
20260506031044 20 184 4.8 16.1 0.00 0.00 0.00 60 1010.2
20260506030543 20 147 8.0 16.1 0.00 0.00 0.00 60 1010.2
20260506030055 20 158 4.8 19.3 0.00 0.00 0.00 60 1010.3
20260506025543 20 170 4.8 19.3 0.00 0.00 0.00 60 1010.3
20260506025044 20 174 4.8 25.7 0.00 0.00 0.00 60 1010.3
20260506024554 20 184 6.4 25.7 0.00 0.00 0.00 60 1010.4
20260506024043 20 197 6.4 25.7 0.00 0.00 0.00 59 1010.3
20260506023543 20 195 6.4 16.1 0.00 0.00 0.00 58 1010.5
20260506023055 20 187 8.0 17.7 0.00 0.00 0.00 58 1010.4
20260506022543 21 0 4.8 19.3 0.00 0.00 0.00 57 1010.4
20260506022044 21 167 6.4 24.1 0.00 0.00 0.00 57 1010.4
20260506021554 21 0 6.4 24.1 0.00 0.00 0.00 57 1010.5
20260506021043 21 162 9.7 24.1 0.00 0.00 0.00 57 1010.4
20260506020542 21 114 4.8 20.9 0.00 0.00 0.00 56 1010.4
20260506020052 21 181 4.8 20.9 0.00 0.00 0.00 57 1010.4
20260506015543 21 140 6.4 19.3 0.00 0.00 0.00 56 1010.2
20260506015048 21 206 4.8 19.3 0.00 0.00 0.00 56 1010.2
20260506014552 21 203 6.4 16.1 0.00 0.00 0.00 55 1010.2
20260506014043 21 186 6.4 16.1 0.00 0.00 0.00 55 1010.1
20260506013547 21 172 6.4 24.1 0.00 0.00 0.00 55 1010.0
20260506013106 21 176 8.0 24.1 0.00 0.00 0.00 55 1010.0
20260506012543 21 205 4.8 12.9 0.00 0.00 0.00 54 1009.9
20260506012045 21 153 4.8 16.1 0.00 0.00 0.00 53 1009.9
20260506011557 21 178 4.8 17.7 0.00 0.00 0.00 53 1009.8
20260506011043 21 194 1.6 22.5 0.00 0.00 0.00 53 1009.8